User: anonymous   Login
Location: Bathurst
(33.4193°S, 149.5775°E)
Time: 04:12:55
(UTC+10:00)
Language:

Vanguard 2 Rocket - Orbit

View from above orbital plane
View from above orbital plane
View from above satellite
View from above satellite

Ground track
Ground track

The orbit data is extracted from the following two-line orbital elements,

1 00012U 59001B   21168.63512902 -.00000008  00000-0 -21655-4 0  9997
2 00012  32.9006 153.1490 1666146 196.0296 158.0631 11.44392049321828
Epoch (UTC): 17 June 2021 15:14:35
Eccentricity: 0.1666146
inclination: 32.9006°
perigee height: 554 km
apogee height: 3326 km
right ascension of ascending node: 153.1490°
argument of perigee: 196.0296°
revolutions per day: 11.44392049
mean anomaly at epoch: 158.0631°
orbit number at epoch: 32182

The dashed part of the orbit path shows where the satellite is in the earth's shadow,  

DLR